Location: Arrien
(43.3167°N, 0.1500°W)
Time: 03:33:14
(UTC+00:00)

Cosmos 2082 - Pass Details

Date: 15 October 2021
Orbit: 835 x 853 km, 71.0° (Epoch: 02 December)

Event Time Altitude Azimuth Distance (km) Brightness Sun altitude
Rises 18:22:23 0° 336° (NNW) 3,395 7.2 -12.6°
Reaches altitude 10° 18:24:50 10° 339° (NNW) 2,456 6.4 -13.0°
Maximum altitude 18:30:28 73° 64° (ENE) 873 3.6 -14.0°
Drops below altitude 10° 18:36:04 10° 149° (SSE) 2,441 5.8 -15.1°
Enters shadow 18:38:28 - 152° (SSE) 3,364 6.5 -15.5°
